Home > Time Zones > World Clock > Weather > Peru > Lima > Past weeks

Flag for Peru Weather past 2 weeks in Lima, Lima, Peru

Now
72 °F

Overcast.


Feels Like: 74 °F
Forecast: 67 / 72 °F
Wind: 2 mph from South

Location: Lima-Callao / Aerop. Internacional Jorgechavez

Current Time: Jun 30, 2015 at 9:37:05 AM

Latest Report: Jun 30, 2015 at 9:00 AM


Visibility: N/A

Pressure: 30.01 "Hg

Humidity: 73%

Dew point: 63 °F

Location of LimaLocation

Historic Weather in Lima — Graph

°F

Lima temperature yesterday

Maximum temperature yesterday: 72 °F (at 1:00 PM)
Minimum temperature yesterday: 66 °F (at 2:00 AM)
Average temperature yesterday: 68 °F

Past Weeks' High & Low Weather Summary

 TemperatureHumidityPressure
High75 °F (Jun 18, 2:00 PM)88% (Jun 21, 9:00 PM)29.98 "Hg (Jun 21, 9:00 PM)
Low66 °F (Jun 16, 4:00 AM)61% (Jun 18, 2:00 PM)29.80 "Hg (Jun 19, 2:00 PM)
Average70 °F76%29.89 "Hg
* Reported Jun 15 8:00 AM — Jun 30 8:00 AM, Lima, Weather by CustomWeather, © 2015

Note: Actual official high and low records may vary slightly from our data, if they occured in-between our weather recording intervals... More about our weather records

Advertising

Lima weather history for previous 24 hours

 ConditionsComfort  
Time TempWeatherWind HumidityBarometerVisibility
8:00 AM
Tue, Jun 30
70 °FOvercast.3 mph78%29.98 "HgN/A
7:00 AM68 °FOvercast.3 mph83%29.95 "HgN/A
6:00 AM68 °FOvercast.3 mph83%29.95 "HgN/A
5:00 AM68 °FOvercast.2 mph83%29.92 "HgN/A
4:00 AM68 °FOvercast.2 mph83%29.92 "HgN/A
3:00 AM68 °FOvercast.2 mph83%29.92 "HgN/A
2:00 AM68 °FOvercast.5 mph83%29.92 "HgN/A
1:00 AM68 °FOvercast.9 mph83%29.92 "HgN/A
12:00 AM68 °FOvercast.7 mph83%29.92 "HgN/A
11:00 PM
Mon, Jun 29
68 °FOvercast.6 mph83%29.92 "HgN/A
10:00 PM68 °FOvercast.8 mph83%29.95 "HgN/A
9:00 PM68 °FOvercast.8 mph83%29.95 "HgN/A
8:00 PM68 °FOvercast.7 mph83%29.95 "HgN/A
7:00 PM68 °FMostly cloudy.6 mph83%29.95 "HgN/A
6:00 PM68 °FMostly cloudy.6 mph83%29.92 "HgN/A
5:00 PM70 °FMore clouds than sun.7 mph73%29.89 "HgN/A
4:00 PM72 °FMore clouds than sun.8 mph69%29.86 "HgN/A
3:00 PM72 °FPartly sunny.6 mph69%29.86 "HgN/A
1:00 PM72 °FOvercast.6 mph69%29.92 "HgN/A
12:00 PM70 °FOvercast.5 mph73%29.95 "HgN/A
11:00 AM70 °FOvercast.6 mph78%29.95 "HgN/A
10:00 AM70 °FOvercast.3 mph73%29.98 "HgN/A
9:00 AM68 °FOvercast.2 mph83%29.95 "HgN/A
Weather by CustomWeather, © 2015

See weather overviewHow to use our weather pages